Tracking 21676 objects as of 29-Oct-2020
HD Live streaming from Space Station
objects crossing your sky now

ARIANE 1 DEB

Track ARIANE 1 DEB now!
10-day predictions


NORAD ID: 39107
Int'l Code: 1986-019VV
Perigee: 764.5 km
Apogee: 994.3 km
Inclination: 98.9 °
Period: 102.4 minutes
Semi major axis: 7250 km
RCS: 0.0163 m2 (small)
Launch date: February 22, 1986
Source: France (FR)
Launch site: FRENCH GUIANA (FRGUI)

Note: This is SATELLITE DEBRIS
aabbcc
Your satellite tracking list
Your tracking list is empty




NASA's NSSDC Master Catalog

Two Line Element Set (TLE):
1 39107U 86019VV  20303.42027926 +.00000236 +00000-0 +15124-3 0  9991
2 39107 098.8732 355.1729 0158531 051.9253 309.6096 14.06240764375269
Source of the keplerian elements: AFSPC